User: anonymous   Login
Location: Slidell
(30.2789°N, 89.7378°W)
Time: 13:47:18
(UTC-06:00)
Language:

Cosmos 2360 Rocket - Orbit

View from above orbital plane
View from above orbital plane
View from above satellite
View from above satellite

Ground track
Ground track

The orbit data is extracted from the following two-line orbital elements,

1 25407U 98045B   18055.52786593  .00000211  00000-0  13151-3 0  9996
2 25407  71.0093 231.1407 0008320 197.2705 162.8136 14.15771272 11907
Epoch (UTC): 24 February 2018 12:40:07
Eccentricity: 0.0008320
inclination: 71.0093°
perigee height: 833 km
apogee height: 845 km
right ascension of ascending node: 231.1407°
argument of perigee: 197.2705°
revolutions per day: 14.15771272
mean anomaly at epoch: 162.8136°
orbit number at epoch: 1190

The dashed part of the orbit path shows where the satellite is in the earth's shadow,  

DLR